CAPE
2 6 2 0 28 18 3 0 0 0 0 0 0 0 0 0 2 4 0 0 0 0 0 0 0 0 0 0 0 0 0 0 0 0 0 0 0 0 0 0 0 0 0 0 0
27 5 0 0 0 30 24 5 0 0 0 0 0 0 0 0 5 1 0 0 0 0 0 0 0 0 0 0 0 0 1 0 0 0 0 0 0 0 0 0 0 0 0 0 0
18 32 4 0 0 9 32 20 3 0 0 0 0 0 12 23 1 0 0 0 0 0 0 0 0 0 0 0 0 0 0 0 0 0 0 0 0 0 0 0 0 0 0 0 0
52 14 25 1 0 0 16 27 20 0 0 0 0 0 21 30 0 0 0 0 0 0 0 0 0 3 2 0 0 0 0 0 0 0 0 0 0 0 0 0 0 0 0 0 0
14 43 18 15 1 0 0 0 21 3 0 0 0 0 40 18 0 0 0 0 1 0 0 1 0 1 0 0 0 0 0 0 0 0 0 0 0 0 0 0 0 0 0 0 0
0 23 32 17 8 1 0 0 16 4 1 0 9 10 25 2 0 0 1 12 3 3 7 9 4 0 0 2 0 0 0 0 0 0 0 0 0 0 0 0 0 0 0 0 0
14 0 46 20 13 0 0 18 0 8 9 12 35 15 33 0 0 10 5 7 16 15 18 43 38 12 4 0 0 2 0 0 0 0 0 0 0 0 0 0 0 0 0 0 0
3 4 0 82 13 11 0 17 26 0 15 17 22 21 6 0 10 0 0 0 23 26 30 44 64 38 25 5 9 14 16 4 0 0 0 0 0 0 0 0 0 0 0 0 0
3 26 0 0 31 17 12 12 45 40 15 18 28 30 2 0 0 1 0 5 17 6 9 41 51 31 28 13 16 10 1 1 0 0 0 0 0 0 0 0 0 0 0 0 0
6 0 26 0 121 24 13 48 35 63 27 42 24 46 26 2 0 0 0 26 23 34 11 18 24 14 25 23 0 1 2 1 0 0 0 4 7 0 0 0 0 0 0 0 0
24 14 3 9 16 64 62 41 28 10 13 0 7 1 0 0 0 0 0 1 35 28 9 14 3 0 4 0 0 0 1 1 3 5 1 1 0 2 0 0 0 0 0 0 0
60 22 7 27 5 156 14 0 0 0 2 1 4 6 4 14 2 0 15 12 41 14 23 7 2 2 4 12 8 8 3 8 9 5 1 6 1 0 0 0 0 0 0 0 0
23 32 9 55 26 140 0 0 0 0 0 0 10 6 35 23 0 0 5 11 9 14 10 2 0 1 0 0 0 1 2 13 6 16 7 3 0 0 0 0 0 0 0 0 0
51 15 15 18 59 151 2 0 0 0 0 0 8 15 21 37 1 0 0 0 9 19 28 19 19 0 6 7 3 2 1 4 7 11 0 8 0 0 0 0 0 0 0 0 0
77 45 28 41 11 105 5 0 0 2 0 0 3 11 16 10 4 7 19 0 0 0 7 1 0 22 4 0 0 2 5 25 10 9 1 1 2 0 0 0 0 0 0 0 0
9 40 35 46 34 22 33 0 0 0 0 0 14 0 12 18 25 43 23 29 4 2 2 3 3 9 0 9 7 17 20 22 13 2 0 1 0 0 0 0 0 0 0 0 0
2 40 31 53 2 9 0 1 0 0 0 2 4 6 1 9 35 18 13 18 3 3 0 3 5 15 15 12 28 23 33 6 0 0 0 0 6 0 0 0 0 0 0 0 0
26 34 7 15 61 6 2 0 0 0 0 0 2 10 4 9 20 12 19 3 20 1 3 2 3 5 16 19 8 3 6 1 0 2 5 0 0 0 0 0 0 0 0 0 0
150 54 11 9 75 15 2 0 0 0 0 0 3 9 0 19 0 29 15 1 3 3 6 3 1 0 0 1 11 17 4 0 2 0 0 0 0 0 0 0 0 0 0 0 0
118 54 21 18 37 57 0 0 0 0 0 0 0 1 0 3 1 10 4 0 1 1 2 1 2 0 0 11 7 8 20 3 1 0 0 0 0 0 0 0 0 0 0 0 0
29 9 1 0 55 18 0 0 0 0 0 0 0 0 0 2 0 3 0 0 0 2 9 10 8 16 11 4 2 4 10 16 17 1 1 0 0 0 0 0 0 0 0 0 0
15 0 0 14 5 0 3 0 0 0 0 0 0 0 0 0 0 2 0 0 0 0 4 11 20 5 0 7 13 8 0 8 3 0 2 8 0 0 0 0 0 0 0 0 0
3 0 5 14 1 0 0 0 0 0 0 0 0 0 0 0 0 0 0 0 0 0 3 12 8 4 3 1 0 11 11 21 9 0 0 3 0 0 0 0 0 0 0 0 0
7 4 17 3 0 0 0 0 0 0 0 0 0 0 0 0 0 0 0 0 0 0 0 2 3 0 0 0 0 0 16 18 7 13 0 0 0 0 0 0 0 0 0 0 0
1 9 0 2 1 0 0 0 0 0 0 0 0 0 0 0 0 0 0 0 2 8 18 5 4 0 4 0 4 16 0 6 3 0 5 0 0 0 0 0 0 0 0 0 0
0 0 0 0 5 0 0 1 0 0 0 0 0 0 0 0 0 0 0 0 0 14 26 13 4 2 0 1 3 1 0 12 5 0 6 0 1 0 0 0 0 0 0 0 0
0 1 0 1 1 1 0 0 0 0 0 0 0 0 0 0 0 0 0 0 0 11 30 22 2 1 0 0 0 3 0 0 0 0 0 1 0 0 0 0 0 0 0 0 0
CIN
-2 -0 -1 -0 -0 -2 -4 -0 -0 -0 -0 -0 -0 -0 -0 -0 -0 -2 -0 -0 -0 -0 -0 -0 -0 -0 -0 -0 -0 -0 -0 -0 -0 -0 -0 -0 -0 -0 -0 -0 -0 -0 -0 -0 -0
-5 -10 -0 -0 -0 -1 -2 -12 -0 -0 -0 -0 -0 -0 -0 -0 -0 -0 -0 -0 -0 -0 -0 -0 -0 -0 -0 -0 -0 -0 -17 -0 -0 -0 -0 -0 -0 -0 -0 -0 -0 -0 -0 -0 -0
-5 -4 -22 -0 -0 -0 -3 -5 -11 -0 -0 -0 -0 -0 -11 -2 -0 -0 -0 -0 -0 -0 -0 -0 -0 -0 -0 -0 -0 -0 -0 -0 -0 -0 -0 -0 -0 -0 -0 -0 -0 -0 -0 -0 -0
-0 -10 -5 -28 -0 -0 -1 -3 -7 -0 -0 -0 -0 -0 -13 -2 -0 -0 -0 -0 -0 -0 -0 -0 -0 -0 -0 -0 -0 -0 -0 -0 -0 -0 -0 -0 -0 -0 -0 -0 -0 -0 -0 -0 -0
-3 -1 -6 -14 -31 -0 -0 -0 -6 -11 -0 -0 -0 -0 -1 -0 -0 -0 -0 -0 -0 -0 -0 -0 -0 -0 -0 -0 -0 -0 -0 -0 -0 -0 -0 -0 -0 -0 -0 -0 -0 -0 -0 -0 -0
-0 -3 -4 -11 -21 -12 -0 -0 -9 -17 -16 -0 -3 -6 -0 -0 -0 -0 -10 -8 -0 -1 -0 -0 -0 -0 -0 -1 -0 -0 -0 -0 -0 -0 -0 -0 -0 -0 -0 -0 -0 -0 -0 -0 -0
-4 -0 -1 -9 -18 -1 -0 -11 -0 -12 -20 -8 -5 -1 -0 -0 -0 -21 -12 -10 -9 -1 -4 -2 -4 -2 -4 -0 -0 -12 -0 -0 -0 -0 -0 -0 -0 -0 -0 -0 -0 -0 -0 -0 -0
-6 -9 -0 -0 -13 -17 -0 -12 -10 -0 -16 -12 -6 -0 -1 -0 -20 -1 -0 -4 -17 -3 -5 -10 -13 -4 -3 -18 -14 -3 -1 -0 -0 -0 -0 -0 -0 -0 -0 -0 -0 -0 -0 -0 -0
-13 -2 -0 -0 -10 -15 -30 -14 -5 -8 -11 -5 -3 -1 -2 -0 -0 -15 -0 -3 -22 -6 -7 -15 -6 -0 -7 -1 -0 -1 -1 -0 -0 -0 -0 -0 -0 -0 -0 -0 -0 -0 -0 -0 -0
-18 -0 -4 -0 -0 -15 -14 -8 -4 -1 -1 -0 -0 -0 -1 -3 -0 -0 -2 -12 -9 -2 -2 -1 -0 -0 -0 -0 -0 -0 -0 -1 -0 -0 -0 -1 -0 -0 -0 -0 -0 -0 -0 -0 -0
-17 -14 -10 -23 -15 -0 -1 -1 -0 -0 -0 -0 -2 -4 -0 -0 -0 -0 -3 -0 -0 -0 -1 -2 -0 -0 -0 -0 -1 -0 -2 -1 -2 -2 -1 -1 -0 -1 -0 -0 -0 -0 -0 -0 -0
-1 -14 -11 -5 -14 -0 -1 -0 -0 -0 -0 -1 -1 -8 -4 -1 -0 -0 -7 -0 -1 -0 -0 -3 -0 -1 -1 -1 -0 -0 -0 -1 -2 -18 -0 -1 -1 -0 -0 -0 -0 -0 -0 -0 -0
-4 -10 -17 -1 -7 -10 -0 -0 -0 -0 -0 -0 -2 -0 -1 -5 -0 -0 -0 -0 -0 -2 -0 -0 -0 -4 -3 -0 -0 -0 -0 -0 -1 -1 -7 -3 -0 -0 -0 -0 -0 -0 -0 -0 -0
-1 -8 -14 -7 -2 -0 -0 -0 -0 -0 -0 -0 -0 -2 -4 -0 -0 -0 -0 -0 -2 -0 -0 -0 -1 -0 -3 -0 -4 -5 -1 -0 -0 -1 -0 -2 -0 -0 -0 -0 -0 -0 -0 -0 -0
-0 -4 -12 -4 -1 -0 -0 -0 -0 -1 -0 -0 -0 -7 -11 -0 -3 -7 -3 -0 -0 -0 -3 -1 -3 -0 -1 -0 -0 -1 -1 -5 -11 -0 -13 -1 -1 -0 -0 -0 -0 -0 -0 -0 -0
-0 -3 -8 -3 -2 -4 -10 -0 -9 -0 -0 -0 -0 -1 -1 -0 -4 -1 -0 -4 -2 -1 -0 -1 -15 -6 -0 -2 -8 -3 -0 -0 -13 -1 -0 -0 -1 -0 -0 -0 -0 -0 -0 -0 -0
-6 -8 -2 -5 -0 -8 -0 -0 -0 -0 -0 -0 -0 -0 -0 -0 -0 -12 -0 -0 -0 -0 -0 -0 -2 -10 -8 -0 -5 -1 -1 -8 -7 -6 -0 -1 -1 -0 -0 -0 -0 -0 -0 -0 -0
-72 -9 -2 -3 -1 -5 -0 -0 -0 -0 -0 -0 -0 -0 -0 -1 -0 -1 -1 -1 -1 -1 -1 -1 -0 -2 -5 -0 -1 -1 -0 -0 -0 -2 -2 -0 -0 -0 -0 -0 -0 -0 -0 -0 -0
-0 -2 -1 -1 -1 -18 -1 -0 -0 -0 -0 -0 -0 -0 -4 -0 -5 -0 -0 -0 -3 -2 -1 -6 -3 -0 -0 -0 -1 -0 -16 -0 -0 -0 -0 -0 -0 -0 -0 -0 -0 -0 -0 -0 -0
-0 -7 -0 -0 -2 -3 -0 -0 -0 -0 -0 -0 -0 -0 -0 -0 -0 -0 -0 -0 -0 -1 -0 -2 -1 -2 -0 -0 -2 -3 -4 -0 -0 -0 -0 -0 -0 -0 -0 -0 -0 -0 -0 -0 -0
-12 -13 -0 -0 -0 -18 -0 -0 -0 -0 -0 -0 -0 -0 -0 -0 -0 -0 -0 -0 -0 -1 -1 -2 -1 -0 -1 -0 -0 -1 -0 -2 -3 -1 -0 -0 -0 -0 -0 -0 -0 -0 -0 -0 -0
-2 -0 -0 -3 -0 -0 -37 -0 -0 -0 -0 -0 -0 -0 -0 -0 -0 -0 -0 -0 -0 -0 -0 -1 -3 -2 -0 -8 -3 -1 -0 -22 -1 -0 -2 -5 -0 -0 -0 -0 -0 -0 -0 -0 -0
-0 -0 -0 -0 -37 -0 -0 -0 -0 -0 -0 -0 -0 -0 -0 -0 -0 -0 -0 -0 -0 -0 -1 -5 -3 -1 -1 -0 -0 -0 -0 -1 -4 -0 -0 -0 -0 -0 -0 -0 -0 -0 -0 -0 -0
-5 -2 -3 -0 -0 -0 -0 -0 -0 -0 -0 -0 -0 -0 -0 -0 -0 -0 -0 -0 -0 -0 -0 -6 -4 -0 -0 -2 -0 -0 -0 -0 -0 -8 -0 -0 -0 -0 -0 -0 -0 -0 -0 -0 -0
-1 -9 -0 -20 -0 -0 -0 -0 -0 -0 -0 -0 -0 -0 -0 -0 -0 -0 -0 -0 -8 -19 -1 -3 -1 -1 -0 -0 -6 -22 -0 -0 -5 -0 -2 -0 -0 -0 -0 -0 -0 -0 -0 -0 -0
-0 -0 -0 -0 -0 -0 -0 -0 -0 -0 -0 -0 -0 -0 -0 -0 -0 -0 -0 -0 -0 -9 -0 -3 -11 -11 -0 -9 -14 -0 -4 -10 -36 -0 -0 -0 -0 -0 -0 -0 -0 -0 -0 -0 -0
-0 -0 -0 -5 -0 -0 -0 -0 -0 -0 -0 -0 -0 -0 -0 -0 -0 -0 -0 -0 -0 -81 -29 -14 -6 -0 -0 -0 -1 -4 -0 -0 -0 -0 -0 -0 -0 -0 -0 -0 -0 -0 -0 -0 -0
Wind_Speed
29 28 27 27 27 25 24 23 25 24 24 24 23 23 23 24 22 24 28 23 21 19 19 20 20 21 21 22 20 20 24 25 26 22 23 19 19 19 20 20 20 18 19 18 13
30 29 28 27 28 26 25 24 23 23 23 23 23 23 21 20 25 30 23 22 20 19 21 20 20 20 22 23 23 24 27 30 26 25 24 21 23 21 20 24 22 21 18 18 13
30 29 28 28 28 28 25 24 23 22 22 22 21 22 21 17 28 31 26 26 21 19 20 20 19 19 24 22 23 26 31 30 29 25 25 25 25 23 25 28 26 23 23 20 16
32 30 29 28 27 28 27 25 24 22 21 21 20 20 19 19 33 22 22 24 19 17 18 19 20 22 26 26 24 29 30 29 28 27 27 29 28 31 31 32 28 28 28 26 23
32 32 30 28 27 27 27 26 25 23 21 20 19 18 18 27 29 18 19 19 16 17 20 19 22 23 27 26 25 30 30 30 30 29 30 31 34 35 37 34 35 29 30 30 28
34 33 31 29 27 26 25 25 24 23 21 20 19 18 24 35 20 19 16 10 14 17 21 20 23 22 25 27 27 25 30 32 30 33 32 35 36 30 36 33 35 35 36 32 31
37 34 33 30 27 25 24 24 24 23 21 20 19 21 28 30 18 18 17 17 14 15 19 20 19 20 22 26 25 27 34 32 29 28 30 32 44 37 41 39 40 36 36 37 37
40 37 33 31 28 26 23 22 22 22 21 19 18 22 33 23 18 18 18 19 15 17 19 18 18 20 23 19 22 27 30 36 28 27 28 28 44 32 30 35 38 39 38 37 36
40 40 37 31 27 26 23 21 20 20 21 18 21 25 34 20 27 22 18 20 15 15 17 17 18 24 24 28 30 28 37 34 34 27 30 28 41 35 32 31 37 39 37 37 38
39 41 40 36 31 24 21 18 16 17 20 20 24 28 30 30 23 23 18 15 18 16 19 20 23 29 30 30 40 35 35 35 37 28 29 38 44 41 40 42 42 44 44 43 40
40 39 41 39 32 30 21 17 22 26 28 30 29 30 22 21 16 23 18 16 18 21 28 24 32 39 31 34 35 36 36 39 37 33 38 43 48 43 44 45 46 45 47 46 44
42 40 40 39 35 31 28 28 29 23 29 29 26 29 21 19 23 24 18 24 25 31 25 28 41 32 30 32 32 34 39 40 36 34 38 43 52 46 42 49 45 49 49 50 47
43 41 39 39 35 32 35 28 19 13 25 31 27 30 24 23 26 25 24 25 31 30 30 34 32 26 27 31 37 39 41 39 41 36 36 43 61 50 41 41 45 44 51 51 49
43 42 40 37 39 38 40 31 24 20 30 32 35 29 27 23 29 20 22 24 28 36 30 34 31 28 35 38 33 42 34 38 40 40 47 33 61 50 45 44 38 38 43 47 46
44 42 41 38 37 45 36 31 25 23 47 30 34 20 26 30 22 25 19 24 32 29 29 33 31 36 37 35 29 40 31 34 37 40 42 43 47 54 33 40 37 37 40 47 47
42 42 40 40 41 40 33 28 23 38 49 31 27 32 28 33 28 19 23 21 22 28 33 35 26 30 39 31 30 26 31 32 31 33 45 40 37 62 41 40 38 39 39 42 41
38 40 41 38 47 30 30 32 46 51 27 32 33 32 32 32 29 26 27 29 30 33 39 34 38 27 25 33 30 31 30 35 37 40 46 29 30 45 35 35 34 36 36 39 39
40 41 41 41 35 34 35 42 52 39 35 29 28 28 35 29 32 29 30 34 32 30 30 36 39 36 29 30 29 30 31 38 43 42 39 29 41 39 32 28 27 35 36 38 40
39 38 42 44 36 37 48 61 57 37 35 27 23 30 31 32 28 30 34 36 32 29 32 34 38 26 29 28 26 28 33 31 37 35 39 37 39 43 41 39 31 29 31 31 34
40 39 47 41 38 41 54 56 54 36 36 29 33 32 37 35 32 33 33 34 35 32 29 27 35 28 24 24 30 34 21 32 32 39 46 44 44 43 33 35 33 27 22 28 31
40 42 40 42 39 49 58 53 40 36 35 35 34 35 34 32 30 32 31 24 31 27 28 29 32 28 23 31 29 29 36 33 33 36 42 48 45 33 30 28 26 20 26 35 31
37 46 37 43 53 47 56 44 36 39 38 35 30 29 33 30 30 29 32 28 22 25 31 30 30 40 38 30 31 28 30 28 33 35 35 39 49 24 24 29 32 33 32 31 34
39 38 36 43 57 46 46 41 35 41 35 32 35 31 30 26 29 24 24 22 19 21 26 24 32 36 35 32 27 34 32 30 32 28 36 37 42 23 24 27 28 33 36 40 43
36 40 40 45 43 49 48 50 41 42 41 35 32 27 25 25 26 23 24 21 19 20 21 19 31 36 39 29 21 27 28 26 29 37 42 42 49 40 41 43 44 44 46 44 45
34 37 34 46 53 46 42 46 47 45 39 36 35 36 33 32 30 30 25 20 20 19 22 20 31 32 35 29 28 28 29 26 32 36 35 42 46 54 41 41 41 44 49 49 46
37 28 38 34 44 46 46 46 46 42 42 46 41 35 32 31 32 26 19 19 21 21 22 25 26 24 31 31 32 36 34 33 32 34 37 46 49 53 51 48 47 46 44 46 46
30 24 31 35 42 44 47 43 46 40 40 42 39 32 33 30 25 21 22 19 20 21 22 24 26 25 33 29 31 42 41 38 40 40 39 45 55 45 52 46 44 46 43 45 45
Wind_Direction
263 263 263 263 263 261 264 266 267 268 269 272 275 278 279 277 275 272 267 278 276 280 287 283 282 281 284 284 288 286 281 281 279 282 286 289 290 299 293 293 295 296 300 304 315
260 261 261 262 260 260 260 263 267 267 269 270 270 275 280 279 272 266 272 275 278 278 275 277 276 278 277 278 279 275 275 275 278 279 288 286 283 290 292 285 288 291 301 301 305
257 257 258 259 259 259 258 259 263 266 267 269 269 270 276 278 271 270 269 267 273 274 275 274 277 275 273 276 274 274 271 275 277 281 284 284 285 291 287 281 279 285 289 297 296
256 255 255 257 258 258 257 256 259 263 266 266 267 268 272 270 262 281 280 266 265 271 272 269 268 268 271 270 274 273 274 275 280 278 281 280 286 283 282 279 280 278 280 282 287
260 253 252 253 254 256 255 254 255 258 262 264 264 265 265 260 264 287 294 275 257 263 262 264 262 265 266 272 273 273 275 275 276 279 279 280 280 280 275 281 276 279 277 279 280
258 257 249 248 250 253 254 252 253 255 259 261 260 261 261 255 276 280 290 286 265 256 259 264 268 266 272 271 270 282 276 276 278 276 277 277 277 283 277 284 278 277 274 276 277
254 255 253 243 244 247 250 250 250 252 256 260 257 259 258 258 276 272 277 283 272 259 262 265 273 267 272 275 275 277 276 278 279 281 280 279 269 275 273 278 274 278 277 274 272
251 251 251 244 239 241 244 246 247 248 252 257 258 260 257 265 267 275 272 270 278 267 267 271 271 273 273 279 284 277 276 273 280 280 281 280 272 279 279 283 277 277 279 277 276
249 247 247 246 233 234 237 241 245 246 249 255 255 257 259 266 254 262 273 262 264 272 272 272 270 267 269 266 270 273 270 273 278 279 284 275 278 279 281 282 279 277 281 280 277
247 244 244 242 238 227 222 230 241 247 246 254 261 254 258 255 254 253 264 261 261 260 265 263 264 261 261 257 260 269 271 275 274 285 281 277 275 278 276 278 278 275 275 276 280
243 243 240 239 235 227 214 215 235 247 239 243 251 252 270 257 259 247 249 257 259 254 254 252 256 254 259 260 268 271 275 274 279 284 282 279 278 279 277 276 275 274 272 273 277
241 240 238 236 235 226 205 224 226 255 240 246 259 247 265 255 253 249 240 245 251 250 250 256 254 259 262 262 266 267 270 272 279 284 285 283 278 282 282 275 277 272 273 274 277
239 237 235 232 229 220 218 221 216 218 248 243 249 242 252 251 252 244 234 245 248 250 244 252 265 259 259 261 262 265 269 274 276 284 286 288 275 282 285 282 278 275 275 275 275
238 234 232 228 228 226 223 218 225 245 251 247 242 251 243 251 253 248 237 242 253 248 252 259 258 257 256 260 263 265 271 273 275 279 276 288 275 280 287 286 284 282 277 277 277
238 233 229 223 227 224 226 218 227 256 244 246 232 252 239 241 254 247 235 247 248 248 249 257 257 253 257 261 264 268 274 278 275 275 280 277 280 277 291 289 291 292 282 276 273
239 231 227 227 228 230 222 211 214 238 248 241 230 229 228 234 247 239 240 254 257 253 255 256 269 260 257 263 262 275 270 274 279 279 273 275 276 274 288 290 294 295 289 280 279
230 230 226 226 225 218 203 208 226 238 235 235 230 223 225 232 237 240 239 239 246 248 250 256 255 267 265 257 260 261 268 268 268 268 271 282 273 276 296 300 301 302 294 290 287
230 228 227 228 225 207 208 217 228 228 226 230 232 222 230 227 237 240 238 242 245 251 253 251 257 250 255 256 263 256 257 262 268 269 273 279 274 282 297 306 307 307 300 295 290
222 224 225 225 223 211 217 224 227 227 223 219 216 217 232 230 241 238 241 243 245 243 252 254 259 273 260 257 253 263 259 267 270 274 275 275 279 285 290 292 300 312 312 310 302
220 224 226 221 222 217 220 228 229 231 225 219 233 230 233 227 238 236 240 249 246 243 252 264 263 267 261 255 256 258 267 262 266 269 270 275 278 278 288 295 299 304 320 321 309
219 224 227 216 220 222 221 227 232 223 220 228 237 237 238 226 232 234 247 262 239 248 240 258 262 268 260 256 255 256 259 264 269 268 270 274 276 286 286 295 304 300 315 313 304
215 220 222 209 217 224 218 223 224 217 228 230 239 240 229 221 233 239 245 250 256 241 240 245 266 260 260 273 263 254 256 250 260 266 267 274 272 284 288 291 298 302 305 310 302
214 221 222 213 218 222 219 223 221 212 214 220 226 232 234 228 242 244 249 260 262 234 244 240 256 260 265 270 264 255 253 252 259 271 265 268 272 282 285 289 299 300 299 299 299
212 216 218 219 226 220 216 218 220 217 225 229 234 238 233 234 253 239 254 257 255 240 248 241 255 253 255 266 269 257 254 252 252 260 265 266 269 275 279 285 286 288 294 300 303
217 221 222 218 218 217 216 216 217 220 230 227 234 238 234 240 241 246 245 257 255 245 240 248 258 256 258 266 266 267 264 258 256 261 267 269 270 270 280 286 288 292 296 296 299
214 225 221 226 217 213 216 218 214 219 222 223 232 227 228 231 236 241 236 250 255 247 240 250 264 264 264 262 264 264 264 264 264 266 270 271 274 263 274 282 286 295 299 299 299
217 232 229 223 213 210 216 213 216 217 229 227 227 227 228 240 246 248 248 245 257 239 241 247 256 262 265 270 268 264 259 262 265 265 268 271 259 280 272 284 291 293 297 299 298